contact:dominique.lefevre@mio.osupytheas.fr, maurice.libes@osupytheas.fr
Project:EMSO Ligure-ouest http://www.emso-fr.org/EMSO-France
Sensor Aquadopp, line 04 Serial AQD8517 
DOI : "https://doi.org/10.17882/74513; https://doi.org/10.17882/83244" 
Title:EMSO Ligure Ouest : Data ligne ALBATROSS capteur AQUADOPP - deploiement 2021
Id,Date,Profondeur,Latitude,Longitude,X_East,Y_North,Z_Up,Amplitude_X,Amplitude_Y,Amplitude_Z,Batterie,SoundSpeed,Heading,Pitch,Roll,Pressure,Temperature,Speed,Direction
, , m, degrees North, degrees East, m.s-1, m.s-1,m.s-1, 1, 1, 1, Volt, m.s-1, degree, degree, degree, dbar, degree_C, m.s-1, degree
04,2022-02-27T01:30:00,1000.0,42.79,6.0312,-0.069,-0.013,0.001,66.0,68.0,65.0,12.3,1504.6,296.8,-0.8,-0.6,967.495,13.26,0.07,259.3
04,2022-02-27T02:00:00,1000.0,42.79,6.0312,-0.079,-0.006,-0.008,65.0,67.0,64.0,12.3,1504.6,292.5,-0.9,-0.6,967.517,13.27,0.079,265.7
04,2022-02-27T02:30:00,1000.0,42.79,6.0312,-0.06,0.008,-0.011,66.0,69.0,64.0,12.3,1504.6,298.7,-0.7,-0.7,967.55,13.26,0.06,277.6
04,2022-02-27T03:00:00,1000.0,42.79,6.0312,-0.052,-0.006,0.006,66.0,68.0,64.0,12.3,1504.6,295.2,-0.8,-0.5,967.542,13.26,0.052,263.4
04,2022-02-27T03:30:00,1000.0,42.79,6.0312,-0.061,-0.006,0.0,64.0,69.0,64.0,12.3,1504.6,285.3,-1.1,-0.4,967.53,13.27,0.061,264.4
04,2022-02-27T04:00:00,1000.0,42.79,6.0312,-0.052,-0.014,0.002,66.0,68.0,65.0,12.3,1504.6,279.2,-0.6,-0.5,967.608,13.27,0.053,254.9
04,2022-02-27T04:30:00,1000.0,42.79,6.0312,-0.053,0.0,-0.012,65.0,68.0,63.0,12.3,1504.6,288.5,-1.0,-0.6,967.65,13.26,0.053,270.0
04,2022-02-27T05:00:00,1000.0,42.79,6.0312,-0.056,-0.01,0.001,65.0,67.0,64.0,12.3,1504.6,290.9,-0.8,-0.5,967.6,13.27,0.056,259.9
04,2022-02-27T05:30:00,1000.0,42.79,6.0312,-0.058,0.01,-0.012,65.0,69.0,64.0,12.3,1504.7,292.0,-1.0,-0.4,967.618,13.28,0.058,279.8
04,2022-02-27T06:00:00,1000.0,42.79,6.0312,-0.034,0.015,-0.008,66.0,66.0,64.0,12.3,1504.7,299.6,-0.9,-0.6,967.602,13.28,0.037,293.8
04,2022-02-27T06:30:00,1000.0,42.79,6.0312,-0.05,0.017,0.006,66.0,67.0,65.0,12.3,1504.7,282.3,-0.9,-0.4,967.61,13.29,0.052,288.8
04,2022-02-27T07:00:00,1000.0,42.79,6.0312,-0.038,0.023,0.001,64.0,67.0,63.0,12.3,1504.7,287.5,-0.9,-0.5,967.595,13.29,0.044,301.2
04,2022-02-27T07:30:00,1000.0,42.79,6.0312,-0.033,0.027,0.002,63.0,65.0,63.0,12.3,1504.7,290.6,-0.8,-0.5,967.589,13.29,0.042,309.3
04,2022-02-27T08:00:00,1000.0,42.79,6.0312,-0.018,0.007,0.01,64.0,64.0,62.0,12.3,1504.7,286.8,-0.8,-0.5,967.584,13.29,0.019,291.2
04,2022-02-27T08:30:00,1000.0,42.79,6.0312,-0.029,0.004,-0.01,64.0,65.0,61.0,12.3,1504.7,284.0,-0.9,-0.4,967.557,13.29,0.029,277.8
04,2022-02-27T09:00:00,1000.0,42.79,6.0312,-0.029,0.002,0.003,68.0,65.0,63.0,12.3,1504.7,286.2,-0.8,-0.5,967.546,13.29,0.029,273.9
04,2022-02-27T09:30:00,1000.0,42.79,6.0312,-0.033,-0.002,0.006,63.0,65.0,63.0,12.3,1504.7,288.1,-0.7,-0.5,967.529,13.3,0.033,266.5
04,2022-02-27T10:00:00,1000.0,42.79,6.0312,-0.031,-0.015,0.006,64.0,64.0,62.0,12.3,1504.7,285.9,-0.8,-0.4,967.492,13.3,0.034,244.2
04,2022-02-27T10:30:00,1000.0,42.79,6.0312,-0.033,-0.018,0.02,63.0,67.0,63.0,12.3,1504.7,287.1,-0.7,-0.4,967.481,13.29,0.037,241.4
04,2022-02-27T11:00:00,1000.0,42.79,6.0312,-0.029,-0.02,-0.006,65.0,67.0,62.0,12.3,1504.7,287.2,-0.7,-0.4,967.478,13.29,0.035,235.4
04,2022-02-27T11:30:00,1000.0,42.79,6.0312,-0.024,-0.026,0.005,64.0,66.0,62.0,12.3,1504.7,287.2,-0.7,-0.4,967.464,13.29,0.035,222.7
04,2022-02-27T12:00:00,1000.0,42.79,6.0312,-0.027,-0.024,0.002,65.0,66.0,63.0,12.3,1504.7,286.1,-0.7,-0.4,967.45,13.29,0.036,228.4
04,2022-02-27T12:30:00,1000.0,42.79,6.0312,-0.041,-0.032,0.012,64.0,66.0,64.0,12.3,1504.7,287.2,-0.6,-0.4,967.439,13.29,0.052,232.0
04,2022-02-27T13:00:00,1000.0,42.79,6.0312,-0.027,-0.037,0.001,65.0,66.0,64.0,12.3,1504.7,282.3,-0.8,-0.4,967.437,13.29,0.045,216.1
04,2022-02-27T13:30:00,1000.0,42.79,6.0312,-0.051,-0.028,-0.003,65.0,68.0,66.0,12.3,1504.7,282.2,-0.6,-0.4,967.465,13.28,0.058,241.2
04,2022-02-27T14:00:00,1000.0,42.79,6.0312,-0.038,-0.024,-0.008,65.0,67.0,63.0,12.3,1504.7,283.3,-0.8,-0.4,967.46,13.29,0.044,237.7
04,2022-02-27T14:30:00,1000.0,42.79,6.0312,-0.039,-0.019,0.005,64.0,67.0,63.0,12.3,1504.7,287.0,-0.7,-0.4,967.46,13.29,0.043,244.0
04,2022-02-27T15:00:00,1000.0,42.79,6.0312,-0.042,-0.015,-0.002,66.0,68.0,63.0,12.3,1504.7,285.9,-0.6,-0.5,967.504,13.28,0.044,250.4
04,2022-02-27T15:30:00,1000.0,42.79,6.0312,-0.046,-0.026,-0.005,67.0,66.0,64.0,12.3,1504.7,280.4,-0.8,-0.4,967.492,13.28,0.052,240.5
04,2022-02-27T16:00:00,1000.0,42.79,6.0312,-0.049,-0.025,-0.011,66.0,66.0,64.0,12.3,1504.7,282.8,-0.7,-0.4,967.515,13.28,0.055,243.0
04,2022-02-27T16:30:00,1000.0,42.79,6.0312,-0.053,-0.014,-0.009,66.0,68.0,65.0,12.3,1504.7,284.7,-0.6,-0.4,967.494,13.29,0.054,255.2
04,2022-02-27T17:00:00,1000.0,42.79,6.0312,-0.04,-0.013,0.01,65.0,66.0,64.0,12.3,1504.7,280.2,-0.6,-0.4,967.519,13.29,0.042,252.0
04,2022-02-27T17:30:00,1000.0,42.79,6.0312,-0.049,-0.017,0.009,65.0,67.0,64.0,12.3,1504.7,276.4,-0.8,-0.4,967.515,13.28,0.051,250.9
04,2022-02-27T18:00:00,1000.0,42.79,6.0312,-0.049,-0.016,-0.002,66.0,67.0,63.0,12.3,1504.6,291.5,-0.5,-0.5,967.535,13.27,0.051,251.9
04,2022-02-27T18:30:00,1000.0,42.79,6.0312,-0.051,-0.002,0.006,65.0,67.0,62.0,12.3,1504.6,287.9,-0.7,-0.4,967.504,13.27,0.051,267.8
04,2022-02-27T19:00:00,1000.0,42.79,6.0312,-0.051,-0.017,0.008,64.0,68.0,63.0,12.3,1504.6,283.0,-0.9,-0.4,967.502,13.27,0.053,251.6
04,2022-02-27T19:30:00,1000.0,42.79,6.0312,-0.054,-0.007,0.006,65.0,66.0,64.0,12.3,1504.6,295.1,-0.8,-0.5,967.47,13.27,0.054,262.6
04,2022-02-27T20:00:00,1000.0,42.79,6.0312,-0.065,0.014,0.01,65.0,67.0,65.0,12.3,1504.6,306.8,-0.7,-0.6,967.49,13.27,0.066,282.2
04,2022-02-27T20:30:00,1000.0,42.79,6.0312,-0.057,-0.008,-0.004,64.0,67.0,64.0,12.3,1504.6,291.2,-0.7,-0.5,967.451,13.27,0.057,262.0
04,2022-02-27T21:00:00,1000.0,42.79,6.0312,-0.045,-0.005,-0.002,64.0,67.0,63.0,12.3,1504.6,289.3,-1.0,-0.4,967.456,13.27,0.045,263.7
